Location: Amon Carter Post Office
(32.8281°N, 97.0484°W)
Time: 11:22:10
(UTC+00:00)

Tiangong - Visible Passes

Search period start: 17 May 2022 00:00
Search period end: 27 May 2022 00:00
Orbit: 386 x 391 km, 41.5° (Epoch: 17 May)

Date Brightness Start Highest point End Pass type
(mag) Time Alt. Az. Time Alt. Az. Time Alt. Az.
17 May 1.4 02:27:40 10° NW 02:30:49 57° NNE 02:32:23 26° E visible
18 May 2.2 03:06:16 10° WNW 03:08:58 34° SW 03:08:58 34° SW visible
19 May 1.2 02:07:38 10° WNW 02:10:48 69° SSW 02:13:15 16° SE visible
20 May 3.3 02:46:50 10° W 02:48:57 16° SW 02:49:50 15° SSW visible
21 May 2.5 01:47:38 10° W 01:50:30 31° SW 01:53:22 10° SSE visible
